Location: Oakland
(41.0130°N, 74.2650°W)
Time: 13:51:38
(UTC-04:00)

Daily predictions for brighter satellites

Satellite Brightness Start Highest point End
(mag) Time Altitude Azimuth Time Altitude Azimuth Time Altitude Azimuth
NOSS 2-2 (E) 3.6 20:43:45 10° SSW 20:47:49 61° ESE 20:52:31 10° NE
Cosmos 2082 Rocket 4.5 20:53:25 10° NE 20:54:05 10° NE 20:54:45 10° NE
deb Chang Zheng 4 4.3 20:50:09 10° NNE 20:54:11 34° E 20:58:11 10° SSE
OPS 6432 4.5 20:51:14 10° SSW 20:54:42 50° ESE 20:57:44 10° NE
Cosmos 2184 Rocket 4.0 20:49:30 10° S 20:55:33 63° E 21:01:39 10° NNE
CZ-2D R/B 4.5 20:52:55 10° S 20:56:33 43° W 21:00:13 10° NNW
CZ-3C R/B 4.3 20:25:45 10° SW 20:56:42 23° SSW 21:04:51 10° SE
Meteor 2-3 Rocket 3.9 20:51:05 10° SSW 20:56:42 79° W 21:02:20 10° N
ERBS 2.4 20:53:14 10° NW 20:56:44 76° NE 21:00:11 10° SE
FENGYUN 3A 4.3 20:52:25 10° S 20:57:44 58° W 21:03:03 10° NNW
Cosmos 1408 4.5 20:55:48 10° ESE 20:57:47 14° E 20:59:45 10° NE
Cosmos 1356 Rocket 3.4 20:54:46 10° S 20:58:58 76° E 21:03:16 10° NNE
Cosmos 1733 Rocket 3.2 20:54:44 10° S 20:59:04 58° E 21:03:23 10° NNE
Cosmos 2263 Rocket 3.8 20:54:37 10° SW 20:59:56 41° WNW 21:05:18 10° N
SL-8 R/B 3.7 20:57:21 10° WSW 21:02:11 88° SSE 21:07:02 10° ENE
YAOGAN 11 4.2 20:57:57 10° SSE 21:02:28 88° ENE 21:07:03 10° NNW
Cosmos 407 Rocket 4.1 20:58:14 10° N 21:03:16 43° ENE 21:08:16 10° SE
Meteor 1-27 Rocket 4.3 21:02:24 10° N 21:07:36 39° ENE 21:12:38 10° SE
PSLV R/B 3.6 21:04:26 10° W 21:07:48 55° SSW 21:10:49 13° ESE
ERS-1 Rocket 3.0 21:04:05 10° SSE 21:09:07 83° ENE 21:14:10 10° NNW
Meteor 2-10 Rocket 3.9 21:03:55 10° N 21:09:46 86° W 21:15:27 10° S
Cosmos 1452 Rocket 4.2 21:05:37 10° SSE 21:10:15 33° E 21:14:55 10° NE
Cosmos 2084 4.5 21:08:44 10° SSE 21:11:37 20° ESE 21:14:28 10° ENE
Cosmos 1340 Rocket 3.9 21:08:14 10° SSW 21:12:05 47° WNW 21:16:00 10° N
Cosmos 909 Rocket 4.4 21:07:00 10° SSW 21:13:29 87° WNW 21:21:20 10° NNE
Abrixas rocket 4.3 21:12:40 10° W 21:15:18 21° SW 21:17:55 10° S
CZ-4 DEB 3.8 21:12:48 10° S 21:15:51 45° W 21:18:55 10° NNW
Cosmos 1190 Rocket 4.0 21:10:45 10° NNW 21:15:56 69° ENE 21:20:56 11° SSE
Cosmos 1782 2.8 21:15:37 10° N 21:19:39 72° E 21:23:40 10° SSE
USA 234 4.2 21:17:43 10° ENE 21:22:31 21° ESE 21:27:17 10° S
Atlas Centaur 2 2.9 21:20:22 10° SW 21:22:34 16° S 21:23:49 14° SSE
USA 186 4.4 21:20:26 10° SW 21:22:46 20° W 21:25:11 10° NW
Cosmos 1939 Rocket 2.8 21:20:02 10° SSE 21:23:53 90° SW 21:27:49 10° NNW
Cosmos 1606 3.1 21:21:41 10° N 21:25:30 47° E 21:28:25 16° SSE
H-2A R/B 2.0 21:21:16 10° SSE 21:25:35 78° ENE 21:29:51 10° N
Cosmos 2074 Rocket 4.4 21:22:42 10° SSW 21:28:57 69° W 21:35:14 10° N
CZ-4B R/B 4.3 21:25:52 10° NE 21:30:09 29° E 21:33:05 16° SE
Cosmos 1892 4.1 21:28:33 10° SSW 21:32:10 40° WNW 21:35:49 10° N
Nadezhda 3 Rocket 4.0 21:38:08 10° N 21:44:31 76° E 21:50:03 14° SSE
Cosmos 676 Rocket 4.0 21:40:54 10° NNW 21:46:07 76° ENE 21:49:43 20° SSE
Cosmos 1184 Rocket 3.2 21:45:10 27° SSE 21:46:29 42° E 21:49:41 10° NNE
Okean 2 Rocket 3.5 21:45:32 21° SSE 21:48:00 41° E 21:52:09 10° NNE
CENTAUR R/B 3.9 21:42:44 10° NW 21:50:12 46° WSW 21:57:59 10° S
MetOp-B 4.1 21:46:46 17° SSE 21:50:54 80° ENE 21:56:17 10° NNW
Cosmos 1174 3.1 21:48:12 10° NNW 21:51:28 72° ENE 21:52:28 38° SE
Cosmos 1954 Rocket 4.0 21:47:10 10° NNW 21:52:21 67° ENE 21:55:30 24° SSE
Sich 1 Rocket 4.2 21:50:11 10° SSW 21:54:42 60° W 21:59:16 10° N
CZ-4 SHROUD 3.3 21:59:35 32° S 22:00:51 72° W 22:03:57 10° NNW
Intercosmos 25 3.3 22:02:34 35° SSE 22:03:40 49° E 22:06:47 10° NNE
ARGOS 3.2 22:01:08 26° SSE 22:04:11 64° ENE 22:09:29 10° N
Cosmos 2341 Rocket 4.0 21:57:58 10° S 22:04:18 87° E 22:10:36 10° N
ATLAS 5 CENTAUR R/B 3.6 22:00:23 10° NW 22:05:56 36° WSW 22:10:53 14° S
SL-27 R/B 4.4 22:03:31 10° NW 22:06:34 25° W 22:09:10 12° SSW
COS B Rocket 4.0 22:03:04 10° N 22:07:07 52° W 22:10:09 15° SSW
Cosmos 1782 Rocket 3.5 22:04:17 19° S 22:07:30 86° E 22:12:00 10° N
Meteor 1-14 Rocket 4.5 22:08:17 27° SSE 22:11:03 48° E 22:16:26 10° NNE
Landsat 7 4.4 22:09:27 30° ESE 22:11:10 43° ENE 22:15:40 10° N
Meteor 2-13 Rocket 4.4 22:07:54 17° S 22:12:49 76° E 22:18:59 10° N
Okean 3 3.5 22:08:33 10° N 22:12:52 77° W 22:14:59 29° S
PSLV R/B 4.2 22:12:36 27° SW 22:13:38 38° W 22:16:26 10° NNW
COSMOS 2487 2.4 22:11:20 10° NNW 22:14:59 87° WSW 22:15:53 49° SSE
DNEPR-1 R/B 4.2 22:10:07 10° NNW 22:15:31 55° NE 22:17:21 34° ESE
Timation 2 Rocket 4.0 22:11:00 10° NNW 22:16:59 64° ENE 22:19:46 32° SE
APEX 3.6 22:17:23 44° SE 22:18:01 49° ESE 22:22:39 10° NE
Cosmos 1238 Rocket 3.2 22:15:38 10° NNW 22:18:43 48° W 22:20:11 28° SSW
Cosmos 2278 Rocket 2.2 22:13:48 10° SSW 22:19:29 84° WNW 22:25:12 10° NNE
SPOT 5 4.0 22:17:34 14° SSW 22:21:43 44° W 22:26:50 10° NNW
Cosmos 1833 Rocket 3.7 22:17:20 10° N 22:22:25 34° ENE 22:24:36 25° E
Cosmos 1975 Rocket 3.2 22:19:06 10° NNW 22:23:25 70° W 22:25:16 33° S
Cosmos 1023 Rocket 4.4 22:18:18 10° NNW 22:23:26 85° ENE 22:25:29 38° SSE
Cosmos 1825 3.3 22:21:19 13° SSW 22:24:24 42° W 22:28:04 10° N
CARTOSAT-1 4.2 22:24:39 36° E 22:25:26 40° ENE 22:29:29 10° N
SL-8 Rocket 3.9 22:21:27 23° S 22:25:33 77° E 22:31:48 10° N
ISS -3.2 22:23:09 10° SW 22:25:57 63° SW 22:25:57 63° SW
Terra 2.4 22:25:43 36° ESE 22:26:55 43° ENE 22:31:25 10° N
Cosmos 1844 Rocket 4.2 22:22:55 10° SW 22:28:05 36° WNW 22:33:17 10° N
YAOGAN 6 3.9 22:29:22 24° SW 22:30:44 33° W 22:33:57 10° NNW
Cosmos 1408 4.2 22:29:47 13° SW 22:32:40 32° WNW 22:36:00 10° NNW
Cosmos 1420 Rocket 4.0 22:31:28 16° SSW 22:35:42 80° WNW 22:40:58 10° NNE
Cosmos 1536 Rocket 3.9 22:31:51 10° N 22:36:13 49° E 22:36:45 46° ESE
H-2A R/B 2.2 22:34:39 41° SE 22:36:28 66° ENE 22:41:46 10° N
ASTEX 1 4.3 22:34:35 10° NNE 22:39:01 32° E 22:39:07 32° E
Cosmos 2082 Rocket 2.4 22:33:51 10° NNW 22:39:29 57° ENE 22:41:15 40° ESE
USA 245 4.1 22:40:07 30° WSW 22:40:43 33° W 22:44:04 10° NNW
Cosmos 1812 3.9 22:37:25 10° NNE 22:40:32 31° ENE 22:40:32 31° ENE
Cosmos 1242 Rocket 3.2 22:39:50 10° NNW 22:43:22 48° W 22:43:57 43° SW
CZ-4C R/B 3.2 22:49:12 74° SSW 22:49:27 78° WSW 22:53:29 10° NNW
Cosmos 614 Rocket 3.8 22:46:16 10° NNW 22:51:22 83° WSW 22:52:31 54° S
Cosmos 2297 3.6 22:48:46 26° SSW 22:52:08 89° W 22:57:55 10° NNE
SL-08 RB Rocket 4.4 22:51:07 36° SSW 22:52:33 49° W 22:57:03 10° NNW
Cosmos 2151 Rocket 3.6 22:52:35 58° SSW 22:53:28 84° W 22:58:01 10° N
Cosmos 1140 Rocket 4.1 22:51:47 10° NNW 22:56:42 47° WSW 22:58:17 35° SSW
Cosmos 864 Rocket 4.4 22:54:36 37° S 22:57:12 89° W 23:03:23 10° N
Cosmos 2366 rocket 4.1 23:01:48 33° SSW 23:04:50 75° W 23:11:11 10° N
USA 234 3.1 22:59:29 10° NE 23:06:04 86° SE 23:12:36 10° SW
SAR-Lupe-2 4.3 23:11:18 51° N 23:11:18 51° N 23:14:03 10° N
Spot 2 4.1 23:11:31 10° NNE 23:15:27 69° NE 23:15:27 69° NE
Okean 1 Rocket 3.3 23:22:47 60° NE 23:22:47 60° NE 23:26:39 10° NNE
Cosmos 1025 Rocket 4.4 23:18:42 10° NNE 23:21:53 28° ENE 23:21:53 28° ENE
Cosmos 1300 Rocket 3.7 23:23:42 71° NNE 23:23:42 71° NNE 23:27:42 10° N
Okean 1-7 Rocket 3.9 23:19:41 10° N 23:23:41 59° NE 23:23:41 59° NE
BREEZE-M DEB (TANK) 4.4 23:25:29 10° NW 23:27:44 23° NNE 23:32:09 10° ENE
Cosmos 2369 Rocket 3.8 23:31:03 22° ENE 23:31:03 22° ENE 23:33:54 10° NE
Okean 1 3.9 23:27:16 10° NNW 23:30:38 56° NW 23:30:38 56° NW
IGS 5A 4.5 23:32:35 39° W 23:32:35 39° W 23:36:16 10° NNW
Meteor 1-20 Rocket 4.5 23:33:05 49° SW 23:34:24 63° WNW 23:39:55 10° N
Cosmos 1000 Rocket 4.3 23:36:56 10° N 23:43:13 84° E 23:44:01 70° SSE
Cosmos 2239 Rocket 4.4 23:47:42 70° SSE 23:48:24 79° E 23:54:44 10° N
